Showing default

KAZSTSAT, 43783

Orbit data source: Space-Track

KAZSTSAT, 43783 is a payload satellite owned by Ghalam LLP (KZ) in SSO that was launched on Mon, 03 Dec 2018 UTC via an FALCON 9 launch vehicle from the Air Force Western Test Range (AFWTR). Payload-class satellites include a variety of spacecraft equipped with specific instruments for various scientific and technological missions. These include communications satellites like Starlink; space stations such as the ISS; scientific satellites like the Hubble; Earth observation satellites from companies like Planet Labs, Umbra, and HawkEye 360; GPS; miniature CubeSats for education and research; and military/defense satellites.

Loading next visibility...
Identifier
43783, 2018-099AB
Orbit
SSO
Country
Flag of KZKZ / KAZ
Related business
Manufacturer
SSTL (Astrium)
Mission
Operational Commercial Imaging
Bus & Motor
SSTL-X50, AOCS
Mass
110 kg wet, ~100 kg dry
Launch date (UTC)
2018-12-03 (8 years ago)
Launch vehicle
FALCON 9
Launch site
Air Force Western Test Range (AFWTR)
Object type
Payload
Rocket body
Debris
Shape & HBR
Box, 0.3 m
Radar Cross Section
0.375 m², Medium (>0.1 m² and < 1m²)

Expand to show TLE details & history
Last TLE update: 11 hours ago

TLE from 11 hours ago
0 KAZSTSAT
1 43783U 18099AB  26235.80903474  .00000742  00000-0  64108-4 0  9991
2 43783  97.4227 264.6767 0010493 182.0551 178.0632 14.99985121421446
Epoch: 2026-08-23T19:25Z
TLE epoch observation values (Epoch: 2026-08-23T19:25:00.601Z)
Latitude
-0.00002°
Longitude
1.32443°
Altitude
577.29 km
Speed
7.568 km/s
True Right ascension
17h 38m 42s
True Declination
0° 00' 00"
Sunlit
Object was in daylight at epoch
Visualization orbit readout
Latitude
Unknown
Longitude
Unknown
Altitude
Unknown
Speed
Unknown
Apparent Right ascension
Unknown
Apparent Declination
Unknown
Sunlit
N/A
Visualization observer readout
Local Sidereal Time
21:34:01
Azimuth
Unknown
Elevation
Unknown
Doppler factor
Unknown
Orbital elements
Apogee altitude
571.22 km
Perigee altitude
556.651 km
Semi-major axis
6,942.073 km
Eccentricity
0.00105
Inclination
97.4227°
RAAN
264.6767°
Arg. of periapsis
182.0551°
True anomaly
178.06726°
Mean anomaly
178.0632°
Eccentric anomaly
178.06523°
Mean motion
3.7524 °/min
Orbital period
95.94 mins
BSTAR
0.000064108
Loading maneuver chart data...
Computing Atmospheric mass density...
Loading historical data...
Loading historical data...
Loading historical data...
Loading historical data...
Loading historical data...
Loading historical data...
Loading historical data...

Documentation

Showing up to 5 results
|